Location: Écuvilly
(49.6505°N, 2.9206°E)
Time: 05:11:23
(UTC+00:00)

Cosmos 2151 Rocket - Pass Details

Date: 17 November 2025
Orbit: 612 x 636 km, 82.5° (Epoch: 10 December)

Event Time Altitude Azimuth Distance (km) Brightness Sun altitude
Rises 17:35:17 0° 169° (S) 2,917 7.0 -14.8°
Reaches altitude 10° 17:37:36 10° 163° (SSE) 2,016 6.1 -15.2°
Maximum altitude 17:41:49 42° 92° (E) 913 3.9 -15.8°
Enters shadow 17:45:30 13° 25° (NNE) 1,826 5.6 -16.4°
